Home > Time Zones > World Clock > Weather > U.S.A. > Reno > Past weeks

Flag for U.S.A. Weather past 2 weeks in Reno, Nevada, U.S.A.

Now
76 °F

Clear.


Feels Like: 76 °F
Forecast: 55 / 91 °F
Wind: 6 mph from Northeast

Location: Reno Tahoe International Airport

Current Time: Jul 28, 2015 at 10:32:39 PM

Latest Report: Jul 28, 2015 at 9:55 PM


Visibility: 10 mi

Pressure: 30.00 "Hg (25.63 "Hg at 1372m altitude)

Humidity: 16%

Dew point: 26 °F

Location of RenoLocation

Historic Weather in Reno — Graph

°F

Reno temperature yesterday

Maximum temperature yesterday: 85 °F (at 4:55 PM)
Minimum temperature yesterday: 57 °F (at 5:55 AM)
Average temperature yesterday: 71 °F

Past Weeks' High & Low Weather Summary

 TemperatureHumidityPressure
High93 °F (Jul 16, 2:55 PM)73% (Jul 22, 3:55 AM)30.08 "Hg (Jul 22, 3:55 AM)
Low56 °F (Jul 28, 5:55 AM)10% (Jul 24, 2:55 PM)29.70 "Hg (Jul 17, 6:55 PM)
Average75 °F31%29.89 "Hg
* Reported Jul 13 9:55 PM — Jul 28 9:55 PM, Reno, Weather by CustomWeather, © 2015

Note: Actual official high and low records may vary slightly from our data, if they occured in-between our weather recording intervals... More about our weather records

Advertising

Reno weather history for previous 24 hours

 ConditionsComfort  
Time TempWeatherWind HumidityBarometerVisibility
9:55 PM
Tue, Jul 28
76 °FClear.6 mph16%30.00 "Hg10 mi
8:55 PM79 °FSunny.12 mph14%29.98 "Hg10 mi
7:55 PM82 °FSunny.9 mph13%29.96 "Hg10 mi
6:55 PM85 °FSunny.6 mph10%29.95 "Hg10 mi
5:55 PM86 °FSunny.10 mph10%29.95 "Hg10 mi
4:55 PM87 °FSunny.10 mph10%29.95 "Hg10 mi
3:55 PM86 °FSunny.7 mph10%29.96 "Hg10 mi
2:55 PM84 °FSunny.7 mph11%29.98 "Hg10 mi
1:55 PM83 °FSunny.15 mph12%30.00 "Hg10 mi
12:55 PM81 °FSunny.12 mph12%30.02 "Hg10 mi
11:55 AM79 °FSunny.14 mph13%30.03 "Hg10 mi
10:55 AM78 °FSunny.8 mph13%30.03 "Hg10 mi
9:55 AM73 °FSunny.3 mph15%30.06 "Hg10 mi
8:55 AM68 °FSunny.3 mph23%30.07 "Hg10 mi
7:55 AM63 °FSunny.No wind33%30.08 "Hg10 mi
6:55 AM59 °FSunny.No wind38%30.07 "Hg10 mi
5:55 AM56 °FClear.3 mph40%30.06 "Hg10 mi
4:55 AM59 °FClear.No wind35%30.04 "Hg10 mi
3:55 AM61 °FClear.3 mph32%30.02 "Hg10 mi
2:55 AM62 °FClear.5 mph31%30.02 "Hg10 mi
1:55 AM64 °FClear.3 mph30%30.01 "Hg10 mi
12:55 AM67 °FClear.No wind25%30.00 "Hg10 mi
11:55 PM
Mon, Jul 27
68 °FClear.5 mph24%29.99 "Hg10 mi
10:55 PM72 °FClear.5 mph20%29.98 "Hg10 mi
Weather by CustomWeather, © 2015

See weather overviewHow to use our weather pages